Regional Weather Roundup
Issued by NWS

Home | Current Version | Previous Version | Text Only | Print | Product List | Glossary On
Versions: 1 2 3 4 5 6 7 8 9 10 11 12 13 14 15 16 17 18 19 20 21 22 23 24 25 26 27 28 29 30 31 32 33 34 35 36 37 38 39 40 41 42 43 44 45 46 47 48 49 50
000
ASUS43 KDMX 282107
RWRIA

WEATHER ROUNDUP FOR IOWA
NATIONAL WEATHER SERVICE DES MOINES IA
400 PM CDT TUE JUL 28 2015

NOTE: "FAIR" INDICATES FEW OR NO CLOUDS BELOW 12,000 FEET WITH NO
SIGNIFICANT WEATHER AND/OR OBSTRUCTIONS TO VISIBILITY.

* - THESE STATIONS ARE NOT NWS STATIONS...THUS NOT UNDER NWS
QUALITY CONTROL.  THEY ALSO DO NOT REPORT WEATHER SUCH
AS PRECIPITATION OR FOG.

IAZ001>003-012>014-020>022-031>034-043>046-282200-
   NORTHWEST IOWA

CITY           SKY/WX    TMP DP  RH WIND       PRES   REMARKS
CARROLL *      LGT RAIN  77  77 100 S6        29.88F
CHEROKEE *     DRIZZLE   73  73 100 NW3       29.92R
DENISON *      PTSUNNY   81  77  89 NW6       29.89R HX  88
LE MARS *      CLOUDY    77  70  78 NW8       29.93R
ORANGE CITY *  CLOUDY    75  66  73 NW8       29.92R
SHELDON *      CLOUDY    75  70  83 W8        29.90R
SIOUX CITY     CLOUDY    79  68  69 NW14      29.92R HX  81
SPENCER        CLOUDY    78  71  79 W13       29.90R HX  80
STORM LAKE *   CLOUDY    77  73  88 W8        29.92S
$$

IAZ055>058-069>071-079>083-090>094-282200-
   SOUTHWEST IOWA

CITY           SKY/WX    TMP DP  RH WIND       PRES   REMARKS
ATLANTIC *     SUNNY     86  79  79 SE6       29.87F HX  99
AUDUBON *      SUNNY     84  79  84 S9        29.89F HX  96
CLARINDA *     MOSUNNY   93  77  59 S12       29.87S HX 107
COUNCIL BLFS * SUNNY     88  77  70 S6        29.88R HX 100
CRESTON *      MOSUNNY   90  77  66 SW12G17   29.89R HX 102
HARLAN  *      PTSUNNY   86  84  94 S9        29.92R HX 108
LAMONI         MOSUNNY   92  77  61 S14G20    29.87S HX 105
RED OAK *      MOSUNNY   90  79  70 SW9       29.87S HX 105
SHENANDOAH *   MOSUNNY   91  79  66 SW8       29.86S HX 107
$$

IAZ047>049-059>061-072>074-084-282200-
   CENTRAL IOWA

CITY           SKY/WX    TMP DP  RH WIND       PRES   REMARKS
AMES           LGT RAIN  75  75 100 SE9       29.88F
ANKENY *       PTSUNNY   81  77  89 E7G14     29.90S HX  88
CHARITON *     SUNNY     90  79  70 S14       29.87S HX 105
DES MOINES     CLOUDY    88  74  63 N3        29.89R HX  96
GRINNELL*      CLOUDY    79  72  78 NE7       29.94R HX  82
KNOXVILLE *    MOSUNNY   88  77  70 SE5       29.88R HX 100
MARSHALLTOWN   TSTM      75  70  84 S20G26    29.87F
PELLA *        CLOUDY    86  82  89 NE3       29.91R HX 105
PERRY *        RAIN      75  75 100 SE9       29.86F
$$

IAZ004>006-015-016-023>025-035-036-282200-
   NORTH CENTRAL IOWA

CITY           SKY/WX    TMP DP  RH WIND       PRES   REMARKS
ALGONA *       CLOUDY    77  72  83 SW9       29.90S
CLARION *      SUNNY     81  73  78 SW10      29.89S HX  85
ESTHERVILLE    CLOUDY    76  72  87 SW9       29.89R
FORT DODGE *   PTSUNNY   77  70  78 S6        29.91R
MASON CITY     CLOUDY    76  72  87 SW15      29.90S
FOREST CITY *  CLOUDY    79  70  73 S13       29.89R HX  81
IOWA FALLS *     N/A     77  72  83 S5        29.91R
$$

IAZ007>011-017>019-026>030-037>042-050>054-066-282200-
   NORTHEAST IOWA

CITY           SKY/WX    TMP DP  RH WIND       PRES   REMARKS
CEDAR RAPIDS   CLOUDY    78  74  87 SW10      29.91R HX  81
CHARLES CITY * SUNNY     79  73  83 S9        29.89S HX  82
CLINTON *      CLOUDY    79  72  78 S13G21    29.90R HX  82
DECORAH *      SUNNY     82  70  65 SW9G18    29.88S HX  86
DUBUQUE        CLOUDY    80  73  79 S10       29.91R HX  84
MONTICELLO *   SUNNY     81  72  74 CALM      29.89R HX  84
OELWEIN *      SUNNY     77  72  83 S7        29.92R
WATERLOO       CLOUDY    76  69  79 S7        29.88S
$$

IAZ064-065-067-068-078-282200-
   EAST CENTRAL IOWA

CITY           SKY/WX    TMP DP  RH WIND       PRES   REMARKS
DAVENPORT      CLOUDY    79  73  82 S10       29.88F HX  82
IOWA CITY      CLOUDY    81  72  74 S10       29.91R HX  85
MT. PLEASANT * CLOUDY    88  72  58 E6        29.90F HX  94
MUSCATINE *    SUNNY     84  73  70 SE6G12    29.89S HX  91
QUAD CITIES    CLOUDY    82  75  79 S5        29.88F HX  89
$$

IAZ062-063-075>077-085>089-095>099-282200-
   SOUTHEAST IOWA

CITY           SKY/WX    TMP DP  RH WIND       PRES   REMARKS
BURLINGTON     PTSUNNY   87  77  72 E8        29.90F HX  99
FAIRFIELD *    SUNNY     84  77  79 SE13      29.89F HX  94
FORT MADISON * SUNNY     91  81  70 S9        29.91S HX 110
KEOKUK *       MOSUNNY   93  81  66 S9        29.89S HX 113
OSKALOOSA *      N/A     86  79  79 S10       29.89S HX  99
CENTERVILLE *  SUNNY     90  81  74 S10       29.90F HX 108
OTTUMWA        CLOUDY    88  80  77 S10       29.87S HX 104
WASHINGTON *   SUNNY     81  75  83 SE6       29.91R HX  86
$$

ABBREVIATIONS USED IN REMARKS
   TC - TEMPERATURES IN CELSIUS
  WCI - WIND CHILL INDEX
   HX - HEAT INDEX
  VSB - VISIBILITY
$$




USA.gov is the U.S. government's official web portal to all federal, state and local government web resources and services.